Location: Zihuatanejo
(17.6330°N, 101.5500°W)
Time: 15:05:46
(UTC-05:00)

Daily predictions for brighter satellites

Satellite Brightness Start Highest point End
(mag) Time Altitude Azimuth Time Altitude Azimuth Time Altitude Azimuth
NATO 3D Rocket 3.7 20:36:47 10° W 20:43:14 76° SSW 20:48:10 10° ESE
OAO 2 Rocket 3.7 20:40:37 10° NW 20:45:51 63° NNE 20:51:07 10° ESE
FREGAT/IRIS 3.2 20:44:12 10° SSE 20:46:57 37° ENE 20:49:42 10° N
Cosmos 1602 Rocket 4.3 20:50:04 10° SSE 20:54:05 34° E 20:58:05 10° NNE
Cosmos 1606 Rocket 3.5 20:51:09 10° N 20:55:35 82° E 20:59:59 10° S
H-II Stage 2 3.4 20:35:41 10° WSW 20:57:12 73° SSE 21:01:00 10° ENE
Hubble Space Telescope 2.6 20:54:25 10° NW 20:57:52 25° NNE 21:01:17 10° ENE
Cosmos 1842 4.4 20:54:50 10° SSW 20:58:34 47° W 21:02:17 10° N
USA 186 3.7 20:56:55 10° ESE 20:58:51 15° ENE 21:00:48 10° NE
Cosmos 1953 4.2 20:57:37 10° NE 20:59:41 14° E 21:01:22 11° ESE
Cosmos 1805 3.4 20:57:08 10° N 21:00:55 50° E 21:04:41 10° SSE
IRAS Rocket 4.3 20:56:38 10° SSE 21:02:09 69° ENE 21:07:43 10° N
SJ-6B 3.4 21:00:59 10° SE 21:04:30 36° ENE 21:08:06 10° N
Centaur Rocket 3.8 21:01:17 10° W 21:04:50 72° S 21:14:52 12° ESE
Thor Agena Rocket 3.6 21:02:11 10° NNE 21:07:06 52° ESE 21:11:59 10° S
Cosmos 1766 3.4 21:03:21 10° N 21:07:17 76° W 21:11:13 10° S
ATLAS 2AS CENTAUR R/B 3.3 21:01:05 10° S 21:07:51 41° ESE 21:15:04 10° NE
SWIFT 2.4 21:03:48 10° W 21:08:02 65° SSW 21:11:22 15° ESE
Lacrosse 5 2.3 21:05:23 10° SW 21:10:25 66° WNW 21:15:26 10° NNE
SEDSat Delta rocket 3.5 21:05:57 10° SW 21:11:44 60° SSE 21:16:44 10° ENE
SL-8 R/B 4.5 21:07:22 10° SW 21:12:05 56° NW 21:16:49 10° NNE
Cosmos 1400 Rocket 3.4 21:09:42 10° SSE 21:13:27 36° E 21:17:09 10° NNE
Resurs 01 Rocket 3.2 21:11:40 14° ESE 21:13:31 18° ENE 21:16:27 10° NNE
Aureole 1 Rocket 2.8 21:16:02 12° SSE 21:18:25 32° ESE 21:21:12 10° NE
Cosmos 2026 Rocket 3.9 21:16:13 10° N 21:22:18 83° E 21:28:27 10° S
Cosmos 2279 Rocket 4.3 21:16:19 10° S 21:22:29 71° W 21:28:38 10° N
Envisat 3.0 21:17:28 10° SSE 21:22:33 90° NNE 21:27:38 10° NNW
Cosmos 1844 Rocket 3.5 21:19:37 10° SSE 21:24:21 28° ESE 21:29:06 10° NE
Intercosmos 25 3.4 21:24:31 10° SSW 21:27:47 61° W 21:30:59 10° N
CZ-2D R/B 3.4 21:23:57 10° S 21:27:50 76° W 21:31:42 10° NNW
Cosmos 2058 Rocket 3.3 21:24:46 10° N 21:29:07 71° W 21:33:26 10° S
Cosmos 2228 3.8 21:27:40 10° NNW 21:31:58 54° W 21:36:14 10° S
Aurora 2 Rocket 3.8 21:29:38 10° W 21:35:01 66° NNW 21:42:56 10° ENE
Cosmos 1048 Rocket 4.0 21:29:58 10° S 21:35:07 63° ESE 21:40:22 10° NNE
Cosmos 1825 Rocket 4.2 21:34:42 27° SE 21:36:07 34° E 21:40:08 10° NNE
Cosmos 1470 3.2 21:32:39 10° NNE 21:36:19 39° E 21:37:19 33° ESE
Cosmos 1428 Rocket 4.4 21:30:05 10° N 21:36:21 82° E 21:42:39 10° S
IUS-9 SRM-1 4.0 21:33:00 10° WNW 21:37:09 81° SSW 21:48:45 22° ESE
SL-16 R/B 4.1 21:34:23 10° NW 21:39:07 28° WSW 21:43:52 10° SSW
GPS 2-18 Rocket1 3.4 21:36:19 10° W 21:39:59 58° N 21:41:55 25° ENE
Meteor 2-5 Rocket 3.8 21:42:10 12° S 21:47:38 61° E 21:53:28 10° NNE
YAOGAN 6 2.8 21:45:52 26° S 21:47:43 68° W 21:51:14 10° NNW
Cosmos 2285 Rocket 3.9 21:44:50 10° S 21:51:08 68° ESE 21:57:24 10° NNE
Cosmos 1939 Rocket 3.1 21:54:52 29° S 21:56:52 68° W 22:00:55 10° NNW
Cosmos 1733 3.7 21:53:34 10° NNW 21:57:15 56° W 21:58:56 29° SSW
Spot 2 Rocket 3.8 21:56:56 41° ESE 21:57:55 46° ENE 22:02:44 10° N
GPS 2-15 Rocket1 3.6 21:55:33 10° W 22:00:01 42° SSW 22:00:36 40° S
Cosmos 1655 Rocket 4.2 21:56:35 10° N 22:02:46 70° W 22:07:47 16° S
ASTRO E2 3.6 22:05:54 10° W 22:09:23 38° SW 22:09:23 38° SW
Cosmos 1452 Rocket 4.0 22:04:45 10° N 22:09:43 41° ENE 22:09:44 41° ENE
Palapa 6 Rocket 4.3 22:07:09 10° WNW 22:12:15 51° N 22:15:33 26° ENE
In-Cosmos 22 4.0 22:10:19 39° S 22:12:25 79° E 22:17:59 10° N
Cosmos 2266 Rocket 3.9 22:07:46 10° N 22:14:04 68° E 22:15:45 48° SSE
Cosmos 2056 Rocket 4.2 22:09:05 10° NNW 22:14:06 50° WSW 22:16:35 28° SSW
Cosmos 1603 4.4 22:09:21 10° NNW 22:14:52 51° WSW 22:17:45 27° SSW
H-2A R/B 3.3 22:21:14 26° NE 22:21:14 26° NE 22:24:38 10° NNE
Meteor 1-16 Rocket 4.2 22:16:22 10° N 22:21:59 65° E 22:22:24 63° ESE
Cosmos 1315 Rocket 3.4 22:21:43 51° WSW 22:22:06 54° W 22:26:04 10° N
H-2A R/B (2) 4.2 22:28:32 22° E 22:28:32 22° E 22:34:59 10° ENE
Cosmos 1607 3.7 22:27:26 10° NNW 22:33:44 79° ENE 22:34:11 74° ESE
Cosmos 494 Rocket 4.0 22:36:41 79° NNW 22:36:41 79° NNW 22:41:40 10° NNE
ERS-2 4.0 22:40:03 30° WNW 22:40:03 30° WNW 22:42:27 10° NNW
Hubble Space Telescope 2.1 22:35:12 10° WNW 22:37:50 38° NW 22:37:50 38° NW
Cosmos 2278 Rocket 4.1 22:50:05 18° NE 22:50:05 18° NE 22:51:31 10° NNE
ASC 2 Rocket 3.8 22:41:22 10° WSW 22:46:38 60° W 22:46:38 60° W
Centaur D-1A AC-31 2.8 22:46:06 10° WNW 22:47:33 26° WNW 22:47:33 26° WNW
Resurs 01 Rocket 3.5 22:49:14 22° WSW 22:49:44 23° W 22:53:12 10° NW
ARGOS 3.6 22:55:27 58° NNW 22:55:27 58° NNW 22:59:46 10° NNW
Cosmos 1943 4.3 22:51:29 10° NW 22:56:33 36° WSW 22:57:02 35° WSW
USA 215 3.7 23:27:48 56° WNW 23:27:48 56° WNW 23:32:57 10° NW
